This demonstration page uses our WeatherBlox Daily Observations layout. Learn more.

Left ArrowRight Arrow

38.80484, -77.04692

Hourly Observations for February 10, 2018

Temp ( °F °C ) Dew Point ( °F °C ) Humidity (%) Winds ( mph kmh ) Pressure ( in mb ) Visibility ( mi km ) Precip ( " mm )
12:52 am 00:52 Mostly Cloudy 40 4.4 34 1.1 79 79 S 8 13 30.33 1027 10 16 0.00 0.00
1:52 am 01:52 Cloudy 40 4.4 35 1.7 83 83 S 3 6 30.32 1027 10 16 0.00 0.00
2:52 am 02:52 Cloudy 39 3.9 35 1.7 86 86 SSW 6 9 30.30 1026 10 16 0.00 0.00
3:52 am 03:52 Partly Cloudy 39 3.9 36 2.2 89 89 SSW 3 6 30.29 1026 10 16 0.00 0.00
4:52 am 04:52 Mostly Cloudy 40 4.4 36 2.2 86 86 Calm 30.29 1026 10 16 0.00 0.00
5:52 am 05:52 Cloudy 39 3.9 36 2.2 89 89 S 7 11 30.28 1025 10 16 0.00 0.00
6:52 am 06:52 Cloudy 40 4.4 37 2.8 89 89 Calm 30.28 1025 10 16 0.00 0.00
7:32 am 07:32 Cloudy 41 5 38 3.3 89 89 SSW 6 9 30.27 1025 10 16 0.00 0.00
7:52 am 07:52 Cloudy 42 5.6 38 3.3 85 85 S 7 11 30.26 1025 10 16 0.00 0.00
7:59 am 07:59 Cloudy 41 5 38 3.3 89 89 S 6 9 30.27 1025 10 16 0.00 0.00
8:52 am 08:52 Cloudy 44 6.7 39 3.9 83 83 SSW 6 9 30.27 1025 10 16 0.00 0.00
9:52 am 09:52 Cloudy 44 6.7 39 3.9 83 83 SSW 6 9 30.26 1025 10 16 0.00 0.00
10:52 am 10:52 Cloudy 46 7.8 40 4.4 79 79 S 8 13 30.24 1024 10 16 0.00 0.00
11:13 am 11:13 Cloudy with Rain 46 7.8 41 5 83 83 S 6 9 30.24 1024 6 10 0.01 0.25
11:52 am 11:52 Cloudy with Light Rain 45 7.2 43 6.1 93 93 S 3 6 30.21 1023 5 8 0.08 2.03
12:08 pm 12:08 Cloudy with Light Rain 45 7.2 43 6.1 93 93 S 3 6 30.21 1023 9 14 0.01 0.25
12:26 pm 12:26 Cloudy with Heavy Rain 46 7.8 44 6.7 93 93 SW 5 7 30.21 1023 3 5 0.02 0.51
12:28 pm 12:28 Cloudy with Heavy Rain 47 8.3 44 6.7 90 90 SW 6 9 30.21 1023 3 4 0.03 0.76
12:32 pm 12:32 Cloudy with Heavy Rain 47 8.3 44 6.7 90 90 WSW 6 9 30.21 1023 2 3 0.06 1.52
12:42 pm 12:42 Cloudy with Heavy Rain 47 8.3 45 7.2 93 93 S 3 6 30.18 1022 2 3 0.12 3.05
12:46 pm 12:46 Cloudy with Heavy Rain 45 7 45 7 100 100 SSE 3 6 30.18 1022 2 3 0.14 3.56
12:52 pm 12:52 Cloudy with Heavy Rain 44 6.7 43 6.1 96 96 SE 5 7 30.17 1022 1 2 0.18 4.57
1:09 pm 13:09 Cloudy with Rain 46 7.8 46 7.8 100 100 SSE 3 6 30.15 1021 2 3 0.08 2.03
1:24 pm 13:24 Cloudy with Rain 45 7.2 45 7.2 100 100 SSE 3 6 30.15 1021 2 3 0.13 3.30
1:34 pm 13:34 Cloudy with Heavy Rain 45 7.2 45 7.2 100 100 SSE 3 6 30.15 1021 1 1 0.17 4.32
1:52 pm 13:52 Cloudy with Rain 45 7.2 45 7.2 100 100 SSW 5 7 30.11 1020 1 1 0.23 5.84
2:01 pm 14:01 Cloudy with Light Rain 48 8.9 47 8.3 96 96 SW 5 7 30.12 1020 1 2 0.02 0.51
2:05 pm 14:05 Cloudy with Light Rain 48 8.9 47 8.3 96 96 W 6 9 30.12 1020 3 4 0.02 0.51
2:09 pm 14:09 Cloudy with Light Rain 48 8.9 47 8.3 96 96 WSW 5 7 30.12 1020 3 5 0.03 0.76
2:36 pm 14:36 Cloudy with Light Rain 48 8.9 48 8.9 100 100 Calm 30.09 1019 3 4 0.06 1.52
2:43 pm 14:43 Cloudy with Light Rain 47 8.3 47 8.3 100 100 Calm 30.09 1019 1 1 0.07 1.78
2:52 pm 14:52 Cloudy with Light Rain 47 8.3 45 7.2 93 93 Calm 30.09 1019 1 1 0.07 1.78
3:08 pm 15:08 Cloudy with Heavy Rain 48 8.9 47 8.3 96 96 Calm 30.09 1019 1 1 0.03 0.76
3:24 pm 15:24 Cloudy with Light Rain 49 9.4 48 8.9 97 97 SSW 8 13 30.09 1019 1 1 0.12 3.05
3:37 pm 15:37 Cloudy with Light Rain 49 9.4 49 9.4 100 100 S 8 13 30.09 1019 2 2 0.17 4.32
3:52 pm 15:52 Cloudy with Light Rain 50 10 50 10 100 100 SSW 9 15 30.09 1019 2 2 0.18 4.57
4:26 pm 16:26 Cloudy with Rain 49 9.4 49 9.4 100 100 SSW 7 11 30.09 1019 1 2 0.05 1.27
4:52 pm 16:52 Cloudy with Light Rain 49 9.4 49 9.4 100 100 SW 7 11 30.09 1019 2 2 0.07 1.78
5:13 pm 17:13 Cloudy with Light Rain 48 8.9 48 8.9 100 100 S 8 13 30.09 1019 2 3 0.00 0.03
5:52 pm 17:52 Cloudy with Rain 49 9.4 49 9.4 100 100 SSW 7 11 30.09 1019 3 5 0.05 1.27
6:13 pm 18:13 Cloudy with Light Rain 50 10 49 9.4 96 96 WSW 3 6 30.09 1019 5 8 0.04 1.02
6:21 pm 18:21 Cloudy with Light Rain 50 10 49 9.4 96 96 Calm 30.09 1019 8 13 0.04 1.02
6:52 pm 18:52 Cloudy with Light Rain 49 9.4 49 9.4 100 100 Calm 30.07 1018 9 14 0.04 1.02
7:52 pm 19:52 Cloudy 50 10 49 9.4 96 96 SW 6 9 30.08 1019 10 16 0.00 0.03
8:11 pm 20:11 Cloudy with Light Rain 46 7.8 46 7.8 100 100 S 7 11 30.09 1019 7 11 0.00 0.03
8:52 pm 20:52 Cloudy with Light Rain 47 8.3 47 8.3 100 100 S 6 9 30.06 1018 7 11 0.00 0.03
9:52 pm 21:52 Cloudy with Light Rain 48 8.9 48 8.9 100 100 S 6 9 30.05 1018 5 8 0.02 0.51
10:13 pm 22:13 Cloudy with Light Rain 50 10 49 9.4 96 96 SW 7 11 30.06 1018 4 6 0.01 0.25
10:52 pm 22:52 Cloudy with Heavy Rain 48 8.9 48 8.9 100 100 S 5 7 30.06 1018 4 6 0.09 2.29
11:15 pm 23:15 Cloudy with Light Rain 50 10 49 9.4 96 96 WSW 5 7 30.06 1018 4 6 0.02 0.51
11:37 pm 23:37 Cloudy with Light Rain 47 8.3 46 7.8 97 97 S 6 9 30.06 1018 2 3 0.03 0.76
11:41 pm 23:41 Cloudy with Light Rain 46 7.8 46 7.8 100 100 S 7 11 30.06 1018 4 6 0.03 0.76
11:52 pm 23:52 Cloudy with Light Rain 50 10 50 10 100 100 S 7 11 30.05 1018 4 6 0.04 1.02

Powered by AerisWeather